• In Hungary
  • List of Countries
  • For 7 days
  • Water Temperature
  • Satellite Maps
  • Weather Map
  • News
  • Weather Widgets
  • user-avatar
    Login

    Hourly Weather Reading

    Today, 22 October, Monday

    Time Temperature Precipitation Wind Pressure Humidity
    00:00 +10°C° 0 mm 6 mps 770 mmHg 74%
    01:00 +9°C° 0 mm 6 mps 770 mmHg 74%
    02:00 +9°C° 0 mm 6 mps 770 mmHg 74%
    03:00 +8°C° 0 mm 6 mps 771 mmHg 74%
    04:00 +7°C° 0 mm 5 mps 771 mmHg 75%
    05:00 +7°C° 0 mm 5 mps 772 mmHg 76%
    06:00 +6°C° 0 mm 5 mps 772 mmHg 76%
    07:00 +7°C° 0 mm 5 mps 773 mmHg 73%
    08:00 +8°C° 0 mm 5 mps 773 mmHg 69%
    09:00 +8°C° 0 mm 6 mps 774 mmHg 65%
    10:00 +9°C° 0 mm 5 mps 774 mmHg 61%
    11:00 +10°C° 0 mm 5 mps 774 mmHg 57%
    12:00 +12°C° 0 mm 5 mps 774 mmHg 52%
    13:00 +12°C° 0 mm 5 mps 774 mmHg 53%
    14:00 +12°C° 0 mm 4 mps 774 mmHg 53%
    15:00 +12°C° 0 mm 4 mps 774 mmHg 53%
    16:00 +11°C° 0 mm 3 mps 774 mmHg 58%
    17:00 +9°C° 0 mm 3 mps 774 mmHg 63%
    18:00 +8°C° 0 mm 2 mps 775 mmHg 68%
    19:00 +8°C° 0 mm 2 mps 775 mmHg 71%
    20:00 +8°C° 0 mm 2 mps 775 mmHg 74%
    21:00 +7°C° 0 mm 2 mps 775 mmHg 76%
    22:00 +7°C° 0 mm 2 mps 775 mmHg 79%
    23:00 +7°C° 0 mm 2 mps 774 mmHg 82%

    Tomorrow, 23 October, Tuesday

    Time Temperature Precipitation Wind Pressure Humidity
    00:00 +7°C° 0 mm 2 mps 774 mmHg 85%
    01:00 +7°C° 0 mm 3 mps 774 mmHg 86%
    02:00 +7°C° 0 mm 3 mps 773 mmHg 86%
    03:00 +5°C° 0 mm 3 mps 773 mmHg 87%
    04:00 +5°C° 0 mm 3 mps 773 mmHg 88%
    05:00 +5°C° 0 mm 3 mps 772 mmHg 90%
    06:00 +5°C° 0 mm 3 mps 772 mmHg 91%
    07:00 +6°C° 0 mm 4 mps 772 mmHg 87%
    08:00 +8°C° 0 mm 4 mps 772 mmHg 83%
    09:00 +10°C° 0 mm 4 mps 772 mmHg 78%
    10:00 +10°C° 0 mm 5 mps 772 mmHg 73%
    11:00 +13°C° 0 mm 5 mps 771 mmHg 67%
    12:00 +14°C° 0 mm 5 mps 771 mmHg 61%
    13:00 +15°C° 0 mm 5 mps 770 mmHg 61%
    14:00 +15°C° 0 mm 5 mps 770 mmHg 60%
    15:00 +15°C° 0 mm 5 mps 770 mmHg 60%
    16:00 +14°C° 0 mm 5 mps 770 mmHg 65%
    17:00 +12°C° 0 mm 5 mps 770 mmHg 70%
    18:00 +11°C° 0 mm 4 mps 770 mmHg 75%
    19:00 +11°C° 0 mm 4 mps 770 mmHg 76%
    20:00 +10°C° 0 mm 4 mps 770 mmHg 77%
    21:00 +10°C° 0 mm 4 mps 770 mmHg 78%
    22:00 +10°C° 0 mm 4 mps 770 mmHg 80%
    23:00 +8°C° 0 mm 4 mps 770 mmHg 81%

    Day after tomorrow, 24 October, Wednesday

    Time Temperature Precipitation Wind Pressure Humidity
    00:00 +9°C° 0 mm 3 mps 769 mmHg 83%
    01:00 +9°C° 0 mm 3 mps 769 mmHg 85%
    02:00 +9°C° 0 mm 3 mps 769 mmHg 87%
    03:00 +9°C° 0 mm 3 mps 769 mmHg 89%
    04:00 +9°C° 0 mm 3 mps 769 mmHg 91%
    05:00 +9°C° 0 mm 3 mps 769 mmHg 92%
    06:00 +8°C° 0 mm 3 mps 769 mmHg 93%
    07:00 +9°C° 0 mm 3 mps 769 mmHg 90%
    08:00 +10°C° 0 mm 3 mps 769 mmHg 87%
    09:00 +11°C° 0 mm 3 mps 769 mmHg 84%
    10:00 +12°C° 0 mm 3 mps 769 mmHg 79%
    11:00 +13°C° 0 mm 3 mps 769 mmHg 75%
    12:00 +16°C° 0 mm 3 mps 769 mmHg 70%
    13:00 +16°C° 0 mm 3 mps 769 mmHg 70%
    14:00 +16°C° 0 mm 3 mps 768 mmHg 70%
    15:00 +16°C° 0 mm 2 mps 768 mmHg 70%
    16:00 +15°C° 0 mm 2 mps 768 mmHg 76%
    17:00 +13°C° 0 mm 2 mps 768 mmHg 82%
    18:00 +12°C° 0 mm 2 mps 767 mmHg 88%
    19:00 +10°C° 0 mm 2 mps 767 mmHg 89%
    20:00 +10°C° 0 mm 2 mps 767 mmHg 90%
    21:00 +9°C° 0 mm 2 mps 767 mmHg 91%
    22:00 +9°C° 0 mm 2 mps 767 mmHg 91%
    23:00 +8°C° 0 mm 2 mps 767 mmHg 92%

    25 October, Thursday

    Time Temperature Precipitation Wind Pressure Humidity
    00:00 +8°C° 0 mm 2 mps 766 mmHg 92%
    01:00 +7°C° 0 mm 2 mps 766 mmHg 93%
    02:00 +7°C° 0 mm 2 mps 766 mmHg 93%
    03:00 +7°C° 0 mm 2 mps 765 mmHg 94%
    04:00 +6°C° 0 mm 2 mps 765 mmHg 94%
    05:00 +6°C° 0 mm 2 mps 765 mmHg 94%
    06:00 +6°C° 0 mm 2 mps 764 mmHg 94%
    07:00 +8°C° 0 mm 1 mps 764 mmHg 91%
    08:00 +9°C° 0 mm 1 mps 764 mmHg 87%
    09:00 +10°C° 0 mm 1 mps 764 mmHg 83%
    10:00 +10°C° 0 mm 2 mps 763 mmHg 76%
    11:00 +12°C° 0 mm 2 mps 763 mmHg 69%
    12:00 +14°C° 0 mm 2 mps 762 mmHg 62%
    13:00 +14°C° 0 mm 2 mps 762 mmHg 61%
    14:00 +14°C° 0 mm 2 mps 761 mmHg 60%
    15:00 +15°C° 0 mm 2 mps 760 mmHg 58%
    16:00 +13°C° 0 mm 2 mps 760 mmHg 65%
    17:00 +12°C° 0 mm 2 mps 760 mmHg 71%
    18:00 +9°C° 0 mm 2 mps 759 mmHg 77%
    19:00 +9°C° 0 mm 2 mps 759 mmHg 80%
    20:00 +9°C° 0 mm 2 mps 759 mmHg 82%
    21:00 +9°C° 0 mm 3 mps 759 mmHg 85%
    22:00 +8°C° 0 mm 3 mps 758 mmHg 87%
    23:00 +8°C° 0 mm 3 mps 758 mmHg 89%

    26 October, Friday

    Time Temperature Precipitation Wind Pressure Humidity
    00:00 +7°C° 0 mm 3 mps 757 mmHg 91%
    01:00 +7°C° 0 mm 3 mps 757 mmHg 91%
    02:00 +7°C° 0 mm 3 mps 757 mmHg 92%
    03:00 +6°C° 0 mm 4 mps 757 mmHg 92%
    04:00 +6°C° 0 mm 4 mps 757 mmHg 90%
    05:00 +5°C° 0 mm 4 mps 757 mmHg 88%
    06:00 +5°C° 0 mm 4 mps 757 mmHg 87%
    07:00 +6°C° 0 mm 4 mps 757 mmHg 81%
    08:00 +6°C° 0 mm 5 mps 757 mmHg 75%
    09:00 +7°C° 0 mm 5 mps 757 mmHg 69%
    10:00 +8°C° 0 mm 5 mps 757 mmHg 65%
    11:00 +8°C° 0 mm 5 mps 757 mmHg 60%
    12:00 +9°C° 0 mm 5 mps 756 mmHg 56%
    13:00 +9°C° 0.1 mm 5 mps 756 mmHg 57%
    14:00 +9°C° 0.1 mm 5 mps 755 mmHg 59%
    15:00 +9°C° 0.1 mm 5 mps 755 mmHg 60%
    16:00 +8°C° 0.2 mm 5 mps 755 mmHg 65%
    17:00 +7°C° 0.2 mm 4 mps 754 mmHg 71%
    18:00 +6°C° 0.2 mm 4 mps 754 mmHg 77%
    19:00 +6°C° 0.2 mm 4 mps 754 mmHg 78%
    20:00 +5°C° 0.2 mm 4 mps 754 mmHg 79%
    21:00 +5°C° 0.2 mm 4 mps 753 mmHg 81%
    22:00 +5°C° 0.2 mm 4 mps 753 mmHg 80%
    23:00 +5°C° 0.2 mm 4 mps 753 mmHg 80%

    27 October, Saturday

    Time Temperature Precipitation Wind Pressure Humidity
    00:00 +4°C° 0.2 mm 4 mps 753 mmHg 80%
    01:00 +4°C° 0 mm 4 mps 753 mmHg 78%
    02:00 +3°C° 0 mm 4 mps 753 mmHg 75%
    03:00 +3°C° 0 mm 4 mps 753 mmHg 73%
    04:00 +1°C° 0 mm 5 mps 753 mmHg 74%
    05:00 +1°C° 0 mm 5 mps 753 mmHg 75%
    06:00 0°C° 0 mm 5 mps 754 mmHg 76%
    07:00 +1°C° 0.1 mm 6 mps 754 mmHg 75%
    08:00 +2°C° 0.1 mm 7 mps 754 mmHg 74%
    09:00 +4°C° 0.1 mm 8 mps 754 mmHg 73%
    10:00 +3°C° 0.1 mm 9 mps 754 mmHg 70%
    11:00 +5°C° 0.1 mm 9 mps 754 mmHg 67%
    12:00 +6°C° 0.1 mm 9 mps 754 mmHg 64%
    13:00 +6°C° 0.1 mm 9 mps 754 mmHg 63%
    14:00 +6°C° 0.1 mm 10 mps 754 mmHg 62%
    15:00 +6°C° 0.1 mm 10 mps 754 mmHg 61%
    16:00 +5°C° 0 mm 9 mps 754 mmHg 63%
    17:00 +5°C° 0 mm 9 mps 755 mmHg 65%
    18:00 +3°C° 0 mm 9 mps 755 mmHg 67%
    19:00 +3°C° 0 mm 9 mps 756 mmHg 66%
    20:00 +3°C° 0 mm 9 mps 756 mmHg 66%
    21:00 +2°C° 0 mm 9 mps 756 mmHg 66%
    22:00 +2°C° 0 mm 9 mps 756 mmHg 66%
    23:00 +2°C° 0 mm 9 mps 757 mmHg 67%

    28 October, Sunday

    Time Temperature Precipitation Wind Pressure Humidity
    00:00 +1°C° 0 mm 9 mps 757 mmHg 67%
    01:00 +1°C° 0 mm 8 mps 757 mmHg 69%
    02:00 +1°C° 0 mm 8 mps 757 mmHg 71%
    03:00 0°C° 0 mm 7 mps 757 mmHg 73%
    04:00 0°C° 0 mm 7 mps 757 mmHg 74%
    05:00 +2°C° 0 mm 7 mps 758 mmHg 74%
    06:00 +2°C° 0 mm 7 mps 758 mmHg 75%
    07:00 +3°C° 0 mm 7 mps 758 mmHg 71%
    08:00 +4°C° 0 mm 8 mps 759 mmHg 67%
    09:00 +5°C° 0 mm 8 mps 759 mmHg 63%
    10:00 +6°C° 0.1 mm 8 mps 759 mmHg 62%
    11:00 +6°C° 0.1 mm 8 mps 760 mmHg 61%
    12:00 +7°C° 0.1 mm 8 mps 760 mmHg 59%
    13:00 +7°C° 0.1 mm 8 mps 760 mmHg 59%
    14:00 +8°C° 0.1 mm 7 mps 760 mmHg 59%
    15:00 +6°C° 0.1 mm 7 mps 760 mmHg 59%
    16:00 +5°C° 0 mm 6 mps 761 mmHg 63%
    17:00 +4°C° 0 mm 6 mps 761 mmHg 67%
    18:00 +3°C° 0 mm 5 mps 761 mmHg 70%
    19:00 +4°C° 0 mm 4 mps 762 mmHg 73%
    20:00 +3°C° 0 mm 4 mps 762 mmHg 75%
    21:00 +3°C° 0 mm 4 mps 762 mmHg 77%
    22:00 +1°C° 0 mm 4 mps 762 mmHg 79%
    23:00 +2°C° 0 mm 3 mps 762 mmHg 82%
    Show more